Regional Weather Roundup
Issued by NWS

Home | Current Version | Previous Version | Graphics & Text | Print | Product List | Glossary On
Versions: 1 2 3 4 5 6 7 8 9 10 11 12 13 14 15 16 17 18 19 20 21 22 23 24 25 26 27 28 29 30 31 32 33 34 35 36 37 38 39 40 41 42 43 44 45 46 47 48 49 50
610
ASUS45 KSLC 180110
RWRUT

UTAH REGIONAL WEATHER ROUNDUP
NATIONAL WEATHER SERVICE SALT LAKE CITY UT
600 PM MST TUE JAN 17 2017

UTZ001>011-023>025-180200-

NORTHERN UTAH

CITY           SKY/WX    TMP DP  RH WIND       PRES   REMARKS
BRIGHAM CITY     N/A     19  12  74 NW6       30.25S WCI  10
HILL AFB       MOCLDY    20   9  62 E6        30.20F WCI  13
LOGAN          CLOUDY     8   4  83 N3        30.25S
OGDEN          MOCLDY    20  14  77 NW5       30.21F WCI  13
SALT LAKE CITY MOCLDY    26  20  77 N6        30.22F WCI  19
TOOELE VALLEY  MOCLDY    27  21  80 CALM      30.23F
WENDOVER       CLOUDY    23  18  80 NE3       30.25R
HEBER CITY     MOCLDY     3   0  85 CALM      30.18F
WEST JORDAN    MOCLDY    25  25  99 NW3       30.22S

$$

UTZ011>015-024>027-180200-

CENTRAL/NORTHEAST UTAH

CITY           SKY/WX    TMP DP  RH WIND       PRES   REMARKS
PROVO AIRPORT  MOCLDY    26  18  71 CALM      30.23F
MOAB/CANYONLAN CLEAR     35  27  72 NW6       30.16R WCI  30
DELTA          PTCLDY    27  23  86 W3        30.21S
PRICE          CLOUDY    19  11  70 CALM      30.16S
RICHFIELD      CLEAR     28  21  74 N3        30.20
ROOSEVELT      CLOUDY    21  16  79 S3        30.30R
VERNAL         CLOUDY    17  12  80 CALM      30.26S

$$

UTZ013>016-019>022-027-180200-

SOUTHERN UTAH

CITY           SKY/WX    TMP DP  RH WIND       PRES   REMARKS
BRYCE CANYON   PTCLDY    11   5  77 S3        30.15R
CEDAR CITY     PTCLDY    30  19  63 W3        30.15R
MILFORD        PTCLDY    30  22  72 N7        30.18R WCI  23
ST GEORGE      MOCLDY    46  27  46 CALM      30.16R
HANKSVILLE     PTCLDY    36  27  69 MISG      30.19S
KANAB          CLEAR     39  28  65 NE5       30.17
BLANDING       PTCLDY    37  31  77 SW3       30.22R

$$

REGIONAL REPORTS     COLORADO/ARIZONA

CITY           SKY/WX    TMP DP  RH WIND       PRES   REMARKS
CRAIG, CO      FOG       17  13  84 E7        30.21R VSB 1/2 WCI   8
GRAND JUNCTION CLEAR     36  30  79 NW5       30.16R WCI  32
RIFLE, CO      CLOUDY    32  25  75 S6        30.17R WCI  26
MONTROSE, CO   CLOUDY    40  31  70 NW3       30.18R
CORTEZ, CO     CLOUDY    41  34  76 W5        30.14R
COLORADO CITY    N/A     41  30  65 CALM      30.15S
PAGE, AZ       CLEAR     44  23  43 CALM      30.14S
GRAND CANYON   PTCLDY    35  26  69 E8        30.14S WCI  29
KINGMAN, AZ    PTCLDY    46  21  37 N7        30.11R
FLAGSTAFF, AZ  CLOUDY    32  27  81 CALM      30.13R

$$

REGIONAL REPORTS    NEVADA/IDAHO/WYOMING

CITY           SKY/WX    TMP DP  RH WIND       PRES   REMARKS
LAS VEGAS, NV  PTCLDY    54  15  21 CALM      30.12S
ELY, NY        MOCLDY    21  13  71 S8        30.14R WCI  11
ELKO, NV       CLOUDY    16   9  74 E6        30.20R WCI   7
POCATELLO, ID  CLOUDY    10   5  80 N8        30.19F WCI  -2
BURLEY, ID     CLOUDY    18  10  71 NE14      30.17R WCI   4
FORT BRIDGER,    N/A      0  -4  82 S5        30.16S WCI -10
EVANSTON, WY   CLOUDY    17   6  62 SE5       30.13S WCI  10
ROCK SPRINGS,  CLOUDY     5  -2  72 CALM      30.15R

$$




USA.gov is the U.S. government's official web portal to all federal, state and local government web resources and services.